Location: Huntsville
(41.2590°N, 111.7678°W)
Time: 01:20:44
(UTC+00:00)

Envisat - Pass Details

Date: 11 December 2021
Orbit: 764 x 766 km, 98.2° (Epoch: 16 January)

Event Time Altitude Azimuth Distance (km) Brightness Sun altitude
Rises 11:14:12 0° 30° (NNE) 3,239 6.6 -38.3°
Reaches altitude 10° 11:17:19 10° 50° (NE) 2,307 6.0 -37.7°
Maximum altitude 11:20:38 17° 91° (E) 1,845 5.6 -37.1°
Drops below altitude 10° 11:23:56 10° 132° (SE) 2,295 5.9 -36.5°
Sets 11:27:00 0° 152° (SSE) 3,215 6.5 -35.9°
